Lady's Island, SC

8:21 AM EST on December 10, 2016 (GMT -0500)
Beaufort

Weather History for KARW - May, 2014

Change the Weather History Date:

Friday, May 9, 2014

  Actual Average (KNBC) Record (KNBC)
Temperature  
Mean Temperature 76 °F -  
Max Temperature 82 °F 80 °F 96 °F (1962)
Min Temperature 71 °F 62 °F 44 °F (1954)
Cooling Degree Days 12    
Growing Degree Days 26 (Base 50)    
Moisture  
Dew Point 71 °F    
Average Humidity 85    
Maximum Humidity 100    
Minimum Humidity 58    
Precipitation  
Precipitation 0.00 in - - ()
Sea Level Pressure  
Sea Level Pressure 30.16 in    
Wind  
Wind Speed 6 mph (SSW)    
Max Wind Speed 14 mph    
Max Gust Speed 21 mph    
Visibility 7 miles    
Events      
Averages and records for this station are not official NWS values.
T = Trace of Precipitation, MM = Missing Value Source: NWS Daily Summary

Daily Weather History Graph

Daily Weather History Graph

Search for Another Location

Airport or City:

Trip Planner

Search our weather history database for the weather conditions in past years. The results will help you decide how hot, cold, wet, or windy it might be!

Date:

Astronomy

May. 09, 2014 Rise Set
Actual Time 6:28 AM EDT 8:09 PM EDT
Civil Twilight 6:02 AM EDT 8:36 PM EDT
Nautical Twilight 5:30 AM EDT 9:08 PM EDT
Astronomical Twilight 4:56 AM EDT 9:42 PM EDT
Moon 3:22 PM EDT (5/9) 3:11 AM EDT (5/9)
Length of Visible Light 14h 33m
Length of Day
13h 40m
Waxing Gibbous, 73% of the Moon is Illuminated
May 9
Waxing Gibbous
May 14
Full
May 21
Last Quarter
May 28
New
Jun 5
First Quarter

Hourly Weather History & Observations

Time (EDT) Temp. Heat Index Dew Point Humidity Pressure Visibility Wind Dir Wind Speed Gust Speed Precip Events Conditions
12:15 AM 71.6 °F - 71.6 °F 100% 30.19 in 7.0 mi South 4.6 mph - N/A   Clear
12:35 AM 71.6 °F - 71.6 °F 100% 30.19 in 7.0 mi South 3.5 mph - N/A   Clear
12:55 AM 71.6 °F - 71.6 °F 100% 30.18 in 7.0 mi South 4.6 mph - N/A   Clear
1:15 AM 71.6 °F - 71.6 °F 100% 30.17 in 7.0 mi South 3.5 mph - N/A   Clear
1:35 AM 71.6 °F - 71.6 °F 100% 30.17 in 7.0 mi Calm Calm - N/A   Clear
1:55 AM 71.6 °F - 71.6 °F 100% 30.17 in 7.0 mi SSW 3.5 mph - N/A   Clear
2:15 AM 71.6 °F - 71.6 °F 100% 30.17 in 7.0 mi Calm Calm - N/A   Clear
2:35 AM 71.6 °F - 71.6 °F 100% 30.16 in 7.0 mi Calm Calm - N/A   Clear
2:55 AM 71.6 °F - 71.6 °F 100% 30.16 in 7.0 mi Calm Calm - N/A   Clear
3:15 AM 71.6 °F - 71.6 °F 100% 30.16 in 7.0 mi SSW 4.6 mph - N/A   Clear
3:35 AM 71.6 °F - 71.6 °F 100% 30.16 in 7.0 mi SSW 4.6 mph - N/A   Clear
3:55 AM 71.6 °F - 71.6 °F 100% 30.16 in 7.0 mi SSW 4.6 mph - N/A   Scattered Clouds
4:15 AM 71.6 °F - 71.6 °F 100% 30.16 in - SSW 4.6 mph - N/A   Unknown
4:35 AM 71.6 °F - 71.6 °F 100% 30.16 in - SSW 6.9 mph - N/A   Unknown
5:15 AM 73.4 °F - 71.6 °F 94% 30.16 in 7.0 mi SSW 5.8 mph - N/A   Overcast
5:35 AM 71.6 °F - 71.6 °F 100% 30.16 in 7.0 mi SSW 5.8 mph - N/A   Overcast
5:55 AM 71.6 °F - 71.6 °F 100% 30.16 in 7.0 mi SSW 9.2 mph 16.1 mph N/A   Overcast
6:15 AM 73.4 °F - 71.6 °F 94% 30.17 in 7.0 mi SSW 9.2 mph - N/A   Mostly Cloudy
6:35 AM 73.4 °F - 71.6 °F 94% 30.17 in 7.0 mi SW 6.9 mph - N/A   Mostly Cloudy
6:55 AM 73.4 °F - 71.6 °F 94% 30.18 in 7.0 mi SW 10.4 mph - N/A   Mostly Cloudy
7:15 AM 73.4 °F - 71.6 °F 94% 30.19 in 7.0 mi SW 8.1 mph - N/A   Overcast
7:35 AM 73.4 °F - 71.6 °F 94% 30.20 in 7.0 mi SW 6.9 mph - N/A   Mostly Cloudy
7:55 AM 73.4 °F - 71.6 °F 94% 30.20 in 7.0 mi SW 6.9 mph - N/A   Overcast
8:15 AM 73.4 °F - 71.6 °F 94% 30.21 in 7.0 mi SW 5.8 mph - N/A   Mostly Cloudy
8:35 AM 73.4 °F - 71.6 °F 94% 30.21 in 7.0 mi SW 3.5 mph - N/A   Mostly Cloudy
8:55 AM 77.0 °F - 71.6 °F 83% 30.21 in 5.0 mi SSW 10.4 mph - N/A   Haze
9:15 AM 77.0 °F - 71.6 °F 83% 30.21 in 7.0 mi SSW 8.1 mph - N/A   Scattered Clouds
9:55 AM 78.8 °F - 69.8 °F 74% 30.21 in 7.0 mi SSW 8.1 mph 16.1 mph N/A   Clear
10:15 AM 78.8 °F - 69.8 °F 74% 30.21 in 7.0 mi SSW 8.1 mph - N/A   Clear
10:35 AM 80.6 °F 83.9 °F 69.8 °F 70% 30.21 in 7.0 mi SSW 8.1 mph - N/A   Clear
10:55 AM 80.6 °F 83.2 °F 68.0 °F 65% 30.21 in 7.0 mi SW 10.4 mph 17.3 mph N/A   Clear
11:15 AM 80.6 °F 82.7 °F 66.2 °F 61% 30.21 in 7.0 mi SSW 8.1 mph - N/A   Clear
11:35 AM 80.6 °F 82.3 °F 64.4 °F 58% 30.21 in 7.0 mi South 6.9 mph 17.3 mph N/A   Clear
11:55 AM 80.6 °F 83.2 °F 68.0 °F 65% 30.21 in 7.0 mi SSW 8.1 mph - N/A   Clear
12:15 PM 82.4 °F 86.3 °F 69.8 °F 66% 30.20 in 7.0 mi South 10.4 mph - N/A   Clear
12:35 PM 80.6 °F 83.2 °F 68.0 °F 65% 30.19 in 7.0 mi South 8.1 mph 16.1 mph N/A   Clear
12:55 PM 80.6 °F 83.9 °F 69.8 °F 70% 30.19 in 7.0 mi South 11.5 mph - N/A   Clear
1:15 PM 80.6 °F 84.6 °F 71.6 °F 74% 30.17 in 7.0 mi South 8.1 mph - N/A   Clear
1:35 PM 82.4 °F 86.3 °F 69.8 °F 66% 30.17 in 7.0 mi South 11.5 mph 17.3 mph N/A   Clear
1:55 PM 82.4 °F 86.3 °F 69.8 °F 66% 30.17 in 7.0 mi South 11.5 mph 18.4 mph N/A   Clear
2:15 PM 82.4 °F 86.3 °F 69.8 °F 66% 30.17 in 7.0 mi South 6.9 mph - N/A   Clear
2:35 PM 82.4 °F 85.4 °F 68.0 °F 62% 30.16 in 7.0 mi South 5.8 mph - N/A   Clear
2:55 PM 82.4 °F 86.3 °F 69.8 °F 66% 30.16 in 10.0 mi South 5.8 mph 17.3 mph N/A   Clear
3:15 PM 82.4 °F 86.3 °F 69.8 °F 66% 30.15 in 10.0 mi South 10.4 mph - N/A   Clear
3:35 PM 80.6 °F 83.9 °F 69.8 °F 70% 30.14 in 10.0 mi South 12.7 mph 17.3 mph N/A   Clear
3:55 PM 80.6 °F 83.9 °F 69.8 °F 70% 30.13 in 10.0 mi South 11.5 mph - N/A   Clear
4:15 PM 80.6 °F 83.2 °F 68.0 °F 65% 30.12 in 10.0 mi South 9.2 mph 17.3 mph N/A   Clear
4:35 PM 80.6 °F 83.9 °F 69.8 °F 70% 30.12 in 10.0 mi SSW 6.9 mph 16.1 mph N/A   Clear
4:55 PM 80.6 °F 83.9 °F 69.8 °F 70% 30.12 in 10.0 mi South 9.2 mph - N/A   Clear
5:15 PM 80.6 °F 83.9 °F 69.8 °F 70% 30.12 in 10.0 mi South 9.2 mph 16.1 mph N/A   Clear
5:35 PM 78.8 °F - 69.8 °F 74% 30.11 in 10.0 mi South 8.1 mph 17.3 mph N/A   Clear
5:55 PM 78.8 °F - 69.8 °F 74% 30.12 in 10.0 mi South 9.2 mph - N/A   Clear
6:15 PM 77.0 °F - 69.8 °F 78% 30.12 in 10.0 mi South 13.8 mph 20.7 mph N/A   Clear
6:35 PM 77.0 °F - 69.8 °F 78% 30.12 in 10.0 mi South 9.2 mph - N/A   Clear
6:55 PM 77.0 °F - 71.6 °F 83% 30.12 in 7.0 mi South 5.8 mph - N/A   Clear
7:15 PM 75.2 °F - 71.6 °F 89% 30.12 in 7.0 mi South 6.9 mph - N/A   Clear
7:55 PM 75.2 °F - 71.6 °F 89% 30.12 in 7.0 mi South 5.8 mph - N/A   Clear
8:15 PM 75.2 °F - 71.6 °F 89% 30.13 in 7.0 mi South 4.6 mph - N/A   Clear
8:35 PM 73.4 °F - 71.6 °F 94% 30.12 in 7.0 mi South 6.9 mph - N/A   Clear
8:55 PM 73.4 °F - 71.6 °F 94% 30.13 in 7.0 mi South 4.6 mph - N/A   Clear
9:15 PM 73.4 °F - 71.6 °F 94% 30.13 in 7.0 mi Calm Calm - N/A   Clear
9:35 PM 73.4 °F - 71.6 °F 94% 30.13 in 7.0 mi Calm Calm - N/A   Clear
9:55 PM 73.4 °F - 71.6 °F 94% 30.14 in 7.0 mi South 4.6 mph - N/A   Clear
10:15 PM 73.4 °F - 71.6 °F 94% 30.14 in 5.0 mi South 3.5 mph - N/A   Clear
10:35 PM 73.4 °F - 71.6 °F 94% 30.14 in 5.0 mi Calm Calm - N/A   Clear
10:55 PM 73.4 °F - 71.6 °F 94% 30.14 in 7.0 mi South 4.6 mph - N/A   Clear
11:15 PM 73.4 °F - 71.6 °F 94% 30.14 in 7.0 mi SSW 4.6 mph - N/A   Clear
11:35 PM 73.4 °F - 71.6 °F 94% 30.14 in 7.0 mi South 3.5 mph - N/A   Clear
11:55 PM 73.4 °F - 71.6 °F 94% 30.14 in 5.0 mi South 3.5 mph - N/A   Clear